This is the latest recevied weather packets stored in our database for station/object EA1FWM-12. If no packets are shown the sender has not sent any weather packets the latest 10 day(s).
| Time | Temp. | Humidity | Pressure | Rain* | Wind** | Luminosity | Snow |
|---|---|---|---|---|---|---|---|
| 1777652269 | 22.22° C | 54% | 1020.6 hPa | - | - | - | - |
| 1777651370 | 21.67° C | 51% | 1020.7 hPa | - | - | - | - |
| 1777650470 | 22.78° C | 53% | 1020.7 hPa | - | - | - | - |
| 1777649571 | 22.78° C | 53% | 1020.8 hPa | - | - | - | - |
| 1777648670 | 22.78° C | 52% | 1021 hPa | - | - | - | - |
| 1777647770 | 23.33° C | 54% | 1021 hPa | - | - | - | - |
| 1777646871 | 23.89° C | 53% | 1021.2 hPa | - | - | - | - |
| 1777645971 | 24.44° C | 54% | 1021.2 hPa | - | - | - | - |
| 1777645072 | 23.89° C | 53% | 1021.2 hPa | - | - | - | - |
| 1777644173 | 23.89° C | 54% | 1021.5 hPa | - | - | - | - |
| 1777643274 | 23.89° C | 54% | 1021.5 hPa | - | - | - | - |
| 1777642373 | 24.44° C | 54% | 1021.7 hPa | - | - | - | - |
| 1777641475 | 24.44° C | 54% | 1021.7 hPa | - | - | - | - |
| 1777639674 | 25.56° C | 55% | 1021.9 hPa | - | - | - | - |
| 1777638775 | 25° C | 58% | 1021.9 hPa | - | - | - | - |
| 1777637875 | 23.89° C | 58% | 1021.8 hPa | - | - | - | - |
| 1777636975 | 23.33° C | 59% | 1022 hPa | - | - | - | - |
| 1777635176 | 23.89° C | 65% | 1022.3 hPa | - | - | - | - |
| 1777634276 | 22.78° C | 65% | 1022.5 hPa | - | - | - | - |
| 1777633376 | 22.78° C | 68% | 1022.5 hPa | - | - | - | - |
| 1777632476 | 21.11° C | 69% | 1022.7 hPa | - | - | - | - |
| 1777631577 | 21.11° C | 70% | 1022.7 hPa | - | - | - | - |
| 1777630678 | 21.11° C | 73% | 1022.6 hPa | - | - | - | - |
| 1777629778 | 20° C | 74% | 1022.6 hPa | - | - | - | - |
| 1777628877 | 19.44° C | 77% | 1022.6 hPa | - | - | - | - |
* Rain since midnight (hover to see other rain measurements)
** Current wind speed in m/s (hover to see current wind gust speed)